Theta_e
347 348 348 348 348 346 344 340 336 336 332 330 328 327 327 327 326 326 326 329 334 337 338 338 339 338 336 338 339 341 342 343 343 343 342 342 341 341 341 342 342 342 342 340 341 341 341 339 338 338 339 337 336 337 337 337 337 338 338 337 337 337 336 336 335 335 336 336 335 335 335 334 333 332 331 331 331 331 331 332 332 333 332 332 332
347 347 348 348 347 346 344 340 337 336 333 331 329 328 327 327 327 327 326 326 327 329 331 333 333 334 336 339 341 342 343 343 342 341 340 338 336 337 338 339 341 342 342 342 341 342 342 340 340 339 337 336 337 337 336 337 337 338 337 337 337 336 336 335 336 336 337 336 335 334 334 334 332 330 328 329 330 330 330 331 332 332 331 331 331
345 348 348 347 348 346 344 341 338 336 333 331 328 328 327 327 327 327 327 326 326 327 329 330 332 335 338 341 341 341 340 339 338 337 335 332 330 332 332 332 333 337 339 340 341 341 341 340 340 338 335 337 338 337 337 337 338 337 337 337 337 337 335 336 337 335 334 334 334 334 334 332 330 329 328 328 329 330 330 331 332 331 331 330 331
343 347 347 348 347 346 345 341 338 336 334 332 329 327 327 328 328 328 327 327 327 329 332 333 335 337 339 340 339 337 336 334 333 333 332 333 334 335 335 333 330 331 334 336 339 340 339 339 338 338 337 337 338 337 337 337 337 337 337 337 337 337 337 337 335 332 333 333 333 334 334 332 332 331 331 331 330 330 330 331 331 331 330 329 330
343 347 346 347 347 347 345 342 338 337 335 332 330 327 327 328 328 328 327 327 326 328 332 335 337 338 337 336 334 332 330 330 331 333 334 336 337 337 336 333 331 331 335 337 339 339 338 338 337 337 337 337 337 337 337 337 336 335 335 335 336 337 337 336 333 333 333 333 333 335 335 335 334 332 331 331 330 329 330 331 331 331 330 329 329
343 347 345 346 347 347 346 343 339 336 335 333 330 328 327 328 328 329 328 327 326 326 329 332 333 332 330 329 328 328 328 329 331 333 335 336 337 339 337 333 330 331 337 337 337 339 338 337 337 337 337 337 337 337 336 336 335 335 335 335 336 337 336 335 333 333 332 332 333 335 335 335 334 333 331 330 331 331 329 329 330 330 331 330 330
340 345 344 345 346 347 346 345 340 337 336 333 331 329 328 327 328 329 329 328 327 326 325 327 328 327 326 326 326 326 327 329 331 334 335 337 338 339 338 336 332 332 336 337 337 338 338 337 337 337 336 336 336 336 335 335 335 335 335 335 336 337 336 334 331 330 331 333 333 334 335 335 334 333 332 331 332 332 331 330 330 330 329 330 330
340 344 344 343 344 346 347 346 342 338 336 334 331 329 328 327 327 328 329 329 328 327 326 326 326 327 327 327 328 328 329 330 332 334 336 338 339 339 339 337 333 333 335 336 337 337 338 337 337 337 336 336 336 335 334 334 334 334 335 336 336 336 334 332 328 327 331 333 333 334 334 335 335 334 333 332 333 332 332 330 328 328 329 329 330
341 343 343 343 342 344 346 346 344 340 337 335 332 330 328 327 327 328 329 330 329 329 328 328 328 328 328 329 330 331 331 332 334 335 336 337 337 338 338 337 333 333 334 334 335 336 337 337 336 336 336 335 335 334 334 334 334 334 334 334 335 334 333 331 327 328 332 333 333 334 334 334 334 335 332 332 332 330 329 329 328 329 329 329 329
340 341 342 342 340 340 344 346 345 343 339 336 334 330 329 328 327 328 329 330 330 330 330 330 330 330 330 330 331 333 333 334 335 335 335 335 337 336 336 336 333 333 332 331 333 336 336 336 336 336 336 334 333 333 333 333 333 333 332 332 333 332 331 329 328 330 333 332 334 333 333 334 334 334 331 330 329 327 326 327 329 329 328 329 329
339 340 340 341 340 338 341 344 345 344 341 339 336 332 329 328 327 328 329 330 331 330 331 332 332 331 331 332 333 334 335 335 335 335 335 335 336 335 336 335 332 332 331 331 332 334 335 335 335 334 333 333 332 332 331 330 329 329 329 329 329 330 329 328 329 332 332 333 334 333 333 333 333 332 330 330 328 328 325 322 327 328 328 329 329
339 339 339 341 339 336 338 342 345 345 343 341 338 334 330 329 329 328 328 330 330 331 331 332 333 333 333 333 333 334 335 335 336 337 336 335 334 334 335 334 331 331 332 332 331 332 335 335 334 333 332 333 332 331 330 330 330 330 329 328 328 328 327 327 330 332 332 333 333 333 332 332 333 331 329 330 329 329 326 324 327 328 328 328 329
339 339 340 340 337 333 335 340 343 344 343 343 340 337 333 329 329 328 328 329 331 331 331 332 332 333 334 333 334 334 334 335 337 337 336 335 334 333 334 335 331 330 332 332 331 331 334 334 334 334 334 332 332 332 332 333 332 332 331 330 328 327 327 328 331 332 332 332 332 332 332 332 332 330 329 330 329 329 328 327 327 327 326 328 329
339 339 339 338 334 331 334 337 341 343 343 344 342 339 336 331 329 329 329 329 331 332 331 331 332 334 334 334 334 334 334 336 336 336 336 335 333 333 333 335 333 331 332 333 332 331 333 334 335 335 334 332 332 333 333 333 330 329 332 332 329 327 328 329 331 332 332 332 331 331 331 332 331 329 330 330 330 329 328 327 326 327 327 327 328
336 338 339 339 336 333 333 335 339 343 343 343 343 342 339 335 332 329 329 329 331 332 332 332 333 335 335 335 335 335 335 336 337 335 336 335 333 332 332 334 334 332 331 333 334 334 334 334 335 334 333 332 332 332 332 330 328 329 332 333 331 328 328 330 332 332 331 331 331 331 331 331 329 329 331 330 329 328 327 326 326 327 327 327 327
337 338 340 341 340 338 337 337 338 342 343 343 343 343 341 339 335 331 330 329 331 333 333 333 333 334 334 334 334 334 334 336 337 336 337 336 334 332 331 332 334 334 331 332 334 335 334 334 333 333 332 332 331 331 331 329 327 329 332 333 332 329 329 331 332 332 332 331 331 331 331 331 329 330 331 330 328 327 326 326 326 326 327 327 327
339 340 341 341 342 341 340 339 339 340 342 343 343 343 343 342 339 334 331 330 332 333 333 333 333 333 334 333 334 334 334 335 336 337 337 336 333 333 332 331 333 334 332 332 334 334 333 332 332 332 331 331 331 331 330 328 326 328 331 332 333 331 330 331 331 332 332 331 331 331 332 331 329 329 330 329 327 325 325 325 326 326 326 327 327
340 340 341 341 342 342 341 340 339 340 341 343 343 343 343 343 341 336 334 332 333 333 333 333 334 334 334 334 334 334 333 333 336 337 336 335 334 333 332 331 330 332 333 331 331 332 331 330 331 330 330 330 330 331 328 327 327 328 330 331 333 332 331 331 331 332 331 331 331 331 332 330 329 330 329 326 325 325 324 324 325 325 325 326 326
340 340 339 340 340 341 341 340 340 340 341 342 343 342 343 342 341 339 337 335 334 335 334 334 335 334 334 334 334 334 333 333 335 336 336 336 335 334 333 331 328 329 333 333 331 331 329 329 329 328 329 328 327 327 325 325 327 329 330 330 331 332 332 331 331 331 331 331 331 331 330 328 329 330 329 326 326 325 322 323 325 324 324 325 326
339 338 338 339 338 339 341 340 340 341 341 342 342 342 342 342 341 341 339 337 336 337 336 336 336 336 335 335 335 335 334 334 334 335 336 335 335 335 332 331 329 327 330 333 333 332 330 328 327 327 326 324 323 322 321 323 326 330 330 329 330 331 332 332 332 331 331 330 330 331 329 328 330 329 329 328 328 325 321 323 326 324 323 324 325
338 337 337 337 336 337 340 340 340 340 340 341 342 343 342 341 341 340 341 340 337 338 338 336 337 337 336 336 335 335 334 335 334 334 334 334 335 335 333 331 330 327 326 329 333 334 332 329 327 327 326 323 322 321 322 323 326 329 329 329 329 331 332 333 332 331 330 330 330 329 327 328 329 329 329 329 328 325 322 323 325 325 323 324 325
337 336 335 334 333 334 336 338 340 339 339 340 341 342 342 341 341 341 342 341 338 339 339 337 338 337 337 336 335 334 334 334 333 333 333 332 333 335 334 332 330 327 323 324 330 333 334 332 329 327 326 324 322 322 323 324 326 328 328 329 329 330 331 333 332 330 329 329 330 328 325 327 329 328 328 328 326 324 324 325 325 324 323 324 324
337 335 332 330 331 333 332 334 337 338 338 339 339 340 341 340 341 342 341 340 339 339 339 338 337 337 336 335 334 334 334 333 332 331 332 330 331 333 333 333 331 327 325 324 326 330 332 333 331 329 327 325 323 323 324 324 324 327 328 329 329 330 331 333 332 331 330 328 330 326 325 329 329 328 328 327 325 323 326 325 324 322 320 322 325
337 334 330 329 333 334 332 331 332 335 337 338 338 338 338 339 340 341 340 340 339 338 338 337 337 337 336 335 335 335 334 334 332 331 331 330 330 332 333 333 331 329 328 327 327 328 329 331 332 330 328 326 325 324 324 324 324 326 329 329 330 330 331 332 332 331 330 328 329 326 326 330 331 329 328 327 323 322 325 325 323 321 315 317 324
337 335 331 330 333 334 333 331 330 331 334 336 337 338 338 337 338 340 340 339 339 338 337 338 337 337 336 335 336 335 334 334 334 333 332 331 331 332 333 334 332 331 330 329 329 328 327 329 330 331 329 326 325 324 324 324 323 325 328 330 329 330 331 332 331 330 329 328 328 326 326 329 331 330 328 327 323 321 324 324 323 322 315 312 318
337 337 334 332 332 334 335 333 332 331 332 333 334 336 337 337 337 339 339 339 338 337 337 338 337 336 336 335 336 335 334 334 335 334 333 331 331 331 332 332 332 332 330 330 330 327 327 327 328 331 330 326 325 324 324 324 324 325 327 329 329 330 331 331 331 330 328 327 327 327 327 328 330 330 329 328 324 323 324 324 323 322 318 314 313
336 337 336 334 333 335 336 335 334 334 333 332 331 333 334 334 335 336 337 338 337 336 336 336 337 336 336 336 336 335 334 334 334 334 333 332 332 331 331 332 333 333 331 330 329 325 324 326 327 330 330 326 325 324 324 324 324 324 326 328 329 329 331 330 330 329 328 327 327 327 327 327 329 330 330 329 327 325 324 324 324 321 317 316 314
335 335 336 334 334 335 337 336 336 335 334 334 333 333 332 330 332 335 335 335 335 335 335 335 336 336 336 336 336 336 336 336 334 334 333 333 332 332 332 332 333 333 330 329 328 324 324 327 327 327 327 326 324 324 324 324 324 323 325 327 328 329 329 330 330 329 328 327 328 328 327 327 328 330 330 330 328 328 326 325 325 322 316 315 316
334 334 334 333 335 335 336 336 334 334 334 333 334 334 333 331 333 334 333 332 331 332 333 332 334 336 336 336 336 335 336 335 334 333 333 333 332 333 334 333 333 331 329 328 327 324 324 326 325 325 326 325 324 323 324 324 324 324 324 326 328 328 329 330 329 329 329 327 328 328 327 327 327 329 330 330 330 329 328 327 326 324 319 316 317
333 332 333 333 334 334 334 334 333 333 332 332 333 334 335 334 334 333 332 332 330 328 328 328 331 335 336 335 335 335 336 334 332 332 332 332 333 334 335 333 332 330 328 326 323 322 323 323 323 324 325 324 324 325 326 326 326 325 325 325 327 328 329 328 328 328 328 327 327 328 327 328 328 328 329 329 330 330 329 328 328 326 323 322 322
333 332 332 332 332 333 332 332 332 331 331 331 331 332 334 335 334 333 333 333 331 329 327 327 328 333 335 335 335 335 335 333 332 332 333 333 334 335 335 334 332 329 327 326 322 322 323 322 322 323 323 324 326 327 328 328 328 327 326 326 326 327 329 329 328 328 328 327 327 327 327 328 328 327 328 329 328 329 330 329 328 328 326 325 325
333 331 331 332 332 332 331 331 330 330 331 331 330 331 333 334 334 335 335 335 334 332 331 330 329 331 334 335 335 335 335 334 334 334 335 334 333 332 333 333 332 329 328 328 326 323 323 322 321 322 323 324 326 327 328 327 327 328 327 327 327 327 329 329 330 329 329 328 327 327 328 328 328 328 327 328 327 328 329 330 329 328 328 326 326
332 330 331 333 333 332 331 331 330 330 332 332 331 332 332 332 334 334 335 336 336 335 334 333 333 333 335 334 336 336 335 336 335 333 334 333 331 331 332 332 332 330 326 326 327 325 322 322 322 322 323 324 325 326 326 325 326 329 329 329 328 328 329 330 330 330 330 329 327 327 328 328 328 328 328 328 327 326 327 328 330 329 329 328 326
333 332 334 333 333 333 332 331 329 332 332 331 331 332 332 329 328 328 331 334 335 335 334 334 334 334 335 334 335 335 335 335 333 331 331 331 330 332 332 332 333 331 325 324 328 327 323 322 323 323 324 324 325 325 324 326 329 330 330 331 330 329 329 329 329 329 330 329 329 327 328 328 328 329 329 328 328 326 326 326 328 329 330 329 327
334 334 335 332 333 333 332 330 329 332 332 331 330 329 328 324 322 322 324 327 330 331 332 333 333 332 332 332 332 333 333 332 331 330 329 330 330 331 332 332 333 332 328 327 329 328 325 324 323 325 326 326 326 327 327 329 331 331 331 331 331 330 329 329 329 329 329 329 329 328 328 329 328 329 329 329 329 327 326 326 326 328 329 329 328
335 335 335 334 334 333 331 329 329 332 331 330 328 326 323 321 321 321 320 321 323 326 330 331 332 331 330 329 329 330 330 330 330 330 329 330 330 330 331 332 332 333 331 329 329 328 327 326 325 326 328 330 330 330 332 331 331 331 331 331 331 331 330 329 328 329 329 329 329 329 328 328 328 328 329 330 330 329 328 327 326 326 327 328 328
334 334 335 335 334 331 329 327 328 330 330 328 325 323 322 321 321 322 321 321 320 323 328 329 328 327 326 326 326 328 329 330 330 330 329 329 330 330 331 331 332 333 332 331 330 330 329 329 327 327 329 331 331 330 330 330 330 331 331 331 331 330 330 329 329 329 328 329 329 329 329 328 328 329 328 329 329 329 329 328 327 326 326 327 326
333 333 334 333 329 325 325 326 328 329 327 326 324 322 321 320 320 321 322 322 320 321 323 324 323 323 324 323 324 326 327 329 329 328 328 328 328 329 330 331 331 331 331 331 331 331 331 331 330 330 331 332 332 330 329 330 330 331 330 331 331 331 330 328 328 328 328 328 328 329 329 329 329 329 328 329 329 329 329 329 328 327 327 327 326
330 330 329 325 322 322 323 326 327 327 326 324 323 322 320 318 318 322 322 320 320 321 321 323 324 324 324 324 324 325 325 325 325 326 326 327 327 327 329 331 330 331 330 330 331 332 332 332 331 331 332 332 332 331 331 331 329 330 330 330 330 330 330 328 328 328 328 329 329 329 329 330 330 329 329 329 329 329 329 329 329 329 328 328 327
324 324 322 321 320 321 323 326 327 326 325 323 322 319 318 318 319 321 322 318 318 320 322 323 324 324 324 324 324 324 323 322 322 323 324 325 325 325 325 327 329 331 329 328 330 331 332 331 329 328 328 330 331 331 331 331 329 329 329 329 329 331 330 329 328 327 327 328 328 329 329 330 330 330 330 330 330 330 329 329 329 330 330 329 328
319 320 319 320 320 319 322 326 327 326 324 322 320 318 317 318 320 321 320 318 318 321 323 324 324 324 324 324 324 323 323 322 321 322 322 323 324 324 322 323 326 328 328 328 328 328 329 330 329 329 327 328 330 331 331 330 330 330 330 329 328 329 330 330 329 328 327 327 327 328 329 330 331 330 330 330 330 330 329 330 329 329 330 330 329
317 318 318 319 319 319 322 325 326 325 323 320 318 317 316 317 318 319 317 317 319 322 324 324 324 323 323 322 321 320 319 320 321 321 321 322 324 326 325 325 325 327 327 328 328 326 327 328 328 329 328 328 330 330 330 330 331 330 329 330 330 329 328 329 330 329 329 329 328 328 328 329 330 330 330 330 330 330 330 330 329 329 329 330 330
317 317 317 318 319 320 322 324 324 323 322 319 317 316 315 314 316 316 315 317 319 322 323 323 322 322 321 318 317 315 314 317 320 321 320 322 323 323 325 325 326 327 327 327 327 327 326 326 326 328 327 327 328 328 329 330 331 330 329 331 332 331 331 330 330 329 328 329 329 329 329 329 329 330 330 329 330 330 330 330 329 328 328 329 329
316 317 317 317 318 320 321 323 323 322 320 318 316 314 313 314 314 313 314 315 319 322 322 319 316 317 317 315 315 314 314 317 320 321 321 322 322 322 322 323 324 324 324 324 326 326 327 326 327 328 327 328 329 328 328 328 329 329 329 330 329 330 333 332 331 330 329 328 328 328 329 329 330 330 329 329 329 329 329 330 329 328 327 327 328
315 316 316 317 318 318 319 321 322 321 319 317 315 313 313 314 313 313 314 316 318 319 318 314 312 314 316 315 315 315 315 318 319 319 319 319 320 320 321 322 322 322 321 321 322 323 324 325 326 327 328 329 329 328 327 327 327 327 327 327 327 330 333 330 330 331 329 329 328 327 328 328 328 329 329 329 328 328 327 328 328 327 328 327 328
315 315 315 316 317 316 317 319 320 319 318 315 313 311 313 313 312 312 314 315 317 316 314 312 313 315 316 316 315 314 316 318 317 318 318 317 317 318 320 321 321 321 320 320 320 319 320 321 323 324 326 327 327 327 327 327 327 327 326 327 328 329 330 329 330 331 330 329 329 328 328 328 328 328 329 329 329 329 328 327 327 326 327 327 327
315 315 315 315 316 315 316 318 319 318 316 314 312 311 312 312 310 310 309 311 312 311 310 311 312 314 316 315 314 314 316 316 316 317 317 317 317 318 318 319 320 320 319 320 319 318 318 318 319 321 322 324 324 325 325 326 326 326 326 327 327 327 328 328 329 329 330 330 330 330 329 328 328 328 328 329 329 329 329 328 328 327 327 326 326
315 315 314 314 315 314 315 316 318 317 314 312 311 311 312 311 310 309 308 307 308 308 309 312 313 314 315 315 313 314 315 316 316 317 317 317 317 317 317 317 317 316 316 316 315 315 314 314 315 316 318 319 321 322 322 323 323 323 324 324 325 325 326 327 327 328 328 328 328 328 328 328 327 327 327 328 328 328 328 328 329 329 328 327 327
315 315 314 314 314 314 314 315 316 315 313 312 311 311 312 311 310 310 309 308 308 308 309 311 314 315 315 314 314 314 315 316 316 317 317 316 316 315 313 310 309 308 308 308 308 308 308 308 310 311 313 314 316 318 319 320 321 321 321 322 322 323 325 326 326 326 326 326 326 326 327 328 327 326 326 327 327 327 328 327 327 328 328 328 327
315 315 314 314 314 313 313 315 316 314 313 312 312 312 312 312 311 310 311 310 308 308 309 312 314 315 315 314 314 314 315 316 316 316 315 313 312 310 307 305 304 303 303 303 304 304 304 305 306 308 309 311 312 314 315 316 317 318 318 320 320 321 322 323 324 323 324 325 325 325 326 326 326 326 326 326 327 326 327 327 326 327 328 328 328
314 314 314 314 314 313 312 313 315 314 313 313 313 313 313 313 311 310 311 312 310 309 309 311 313 315 315 314 314 314 315 315 315 316 314 309 308 306 305 306 305 303 303 303 303 304 304 305 306 307 308 310 311 311 311 312 314 315 315 316 318 318 319 320 320 320 322 323 323 323 324 324 324 324 326 326 325 325 327 327 327 328 328 328 328
Wind_Speed
14 15 17 19 20 21 21 22 22 22 23 23 23 23 24 23 24 24 23 22 22 22 22 22 21 20 20 21 20 19 18 18 17 16 17 17 18 19 20 20 20 19 18 17 17 17 16 15 15 14 13 12 12 13 14 15 16 16 17 17 16 16 17 16 16 17 17 18 18 18 17 17 16 16 16 16 16 16 16 16 16 15 15 15 15
17 16 17 19 20 21 21 22 22 22 23 23 23 23 24 24 24 24 23 22 21 20 20 21 20 21 21 20 19 19 18 17 17 17 16 15 16 17 17 18 18 18 17 16 16 15 15 15 15 14 13 13 12 12 14 15 16 16 17 17 16 17 17 16 17 17 16 17 17 17 17 16 16 16 16 16 16 16 15 15 15 14 15 15 15
19 16 17 20 21 20 21 22 22 22 22 23 23 23 23 24 24 24 23 23 22 21 21 21 21 21 20 20 20 19 18 18 17 17 17 15 15 15 15 15 16 16 16 15 15 14 14 14 14 14 14 14 13 12 13 13 14 17 17 17 16 16 17 16 16 16 15 16 17 17 16 16 16 15 16 16 15 16 15 15 15 15 14 14 14
19 16 17 20 21 20 20 21 22 22 22 23 23 23 24 24 24 23 23 22 22 22 22 21 21 20 20 20 20 19 19 18 18 17 17 16 15 14 14 14 14 14 14 14 15 15 14 14 14 14 14 14 13 13 13 12 14 16 17 17 16 16 16 15 15 15 15 15 17 16 15 15 15 15 15 15 15 15 15 15 15 15 14 15 14
20 16 17 19 20 20 20 21 22 23 22 23 23 23 24 24 23 23 23 22 22 22 22 22 21 21 21 20 19 19 19 19 18 17 17 16 14 14 14 13 13 13 13 14 14 15 14 14 15 15 15 15 14 13 13 13 14 15 16 16 16 16 15 14 14 14 14 16 16 14 13 14 15 14 14 14 14 14 15 15 15 15 14 15 15
20 16 17 18 19 19 19 21 22 22 23 23 23 23 24 24 23 22 22 22 22 22 22 22 22 22 21 20 19 19 19 19 18 17 16 16 15 14 13 13 12 13 14 13 13 14 14 14 15 15 15 15 15 14 13 13 14 14 14 15 15 15 15 14 13 14 16 16 14 12 12 13 14 13 13 14 14 13 14 14 14 14 14 14 14
19 16 17 16 18 18 18 20 21 22 22 23 23 23 23 23 22 22 22 22 22 22 21 22 22 22 21 20 20 19 19 19 18 17 16 16 15 14 13 13 12 12 13 13 13 14 14 15 15 15 15 15 15 14 13 13 13 12 13 15 15 14 13 13 12 15 17 14 11 11 12 12 13 13 12 13 13 13 13 13 13 14 14 14 14
17 14 15 15 16 17 18 18 20 21 21 22 22 22 22 22 22 21 22 22 21 21 21 21 21 21 20 20 20 19 18 18 17 16 16 15 15 14 13 13 13 12 13 14 14 14 14 15 15 15 15 15 14 14 13 13 12 13 14 15 15 14 12 11 11 14 14 11 10 10 11 11 13 13 12 12 13 12 13 12 13 13 14 14 15
15 12 12 13 14 16 17 17 18 20 21 21 21 22 22 22 21 21 21 22 21 21 20 20 20 19 19 19 19 18 17 16 16 15 15 15 14 14 14 14 14 13 14 14 15 14 14 15 15 15 15 15 15 15 14 13 13 14 14 14 14 14 12 11 12 13 11 9 10 10 10 11 12 12 11 11 11 11 12 12 12 12 13 14 14
14 12 11 11 14 16 16 17 17 18 19 20 21 22 22 21 21 20 20 21 21 21 20 19 19 18 18 17 17 16 16 15 15 15 14 14 14 14 14 14 14 14 14 14 15 15 14 15 15 15 14 14 15 15 14 14 13 14 13 12 13 13 12 12 13 12 10 9 10 10 11 11 11 11 11 11 11 11 11 12 12 12 13 14 14
12 11 11 10 13 16 16 16 16 17 18 18 20 21 21 21 21 21 20 19 19 20 19 19 18 18 17 16 15 15 14 14 14 14 14 13 13 13 14 15 14 14 14 14 15 16 16 15 15 15 15 15 15 15 15 15 14 13 12 10 11 11 12 13 12 10 9 9 9 9 11 11 11 11 11 11 10 11 11 12 12 13 13 14 14
12 11 10 10 13 16 16 16 16 17 18 18 18 19 20 21 21 21 20 19 18 18 18 18 18 17 17 16 15 14 13 14 14 14 13 13 12 13 14 14 14 14 13 13 14 17 17 15 16 16 16 16 15 16 15 15 13 12 11 10 9 10 11 12 11 9 9 9 9 10 9 9 10 10 11 10 10 11 11 11 12 12 13 13 13
12 11 10 10 12 15 16 16 15 16 18 18 18 18 19 21 21 21 20 19 17 17 17 17 17 16 16 15 15 14 13 14 14 14 13 13 13 13 14 14 14 13 13 13 14 17 17 15 16 16 16 17 16 15 13 11 10 8 7 8 9 10 11 10 9 8 9 9 9 9 8 9 9 10 11 11 11 11 10 11 12 12 13 13 13
13 11 10 10 11 15 15 15 15 14 16 17 18 18 18 19 20 20 20 18 17 17 16 16 16 15 15 14 14 13 13 13 14 14 13 13 13 12 14 14 14 13 13 14 15 16 16 15 15 15 17 17 15 13 10 8 6 5 5 6 8 10 10 9 8 7 8 8 8 8 8 8 9 10 10 10 10 9 9 10 11 12 12 12 13
14 12 11 10 10 13 13 13 14 14 15 17 18 19 18 18 18 19 19 18 17 16 16 16 15 14 14 13 13 13 12 12 13 13 14 15 13 12 13 14 14 13 13 14 15 15 15 15 15 17 17 15 13 11 8 6 4 4 5 6 8 9 9 8 7 7 7 7 7 7 7 7 9 11 10 9 9 9 10 10 11 11 11 12 12
14 13 11 11 11 11 11 11 13 13 14 16 17 18 18 17 18 18 18 18 16 15 15 14 14 14 13 13 13 12 12 11 11 12 14 15 13 12 12 14 14 13 13 14 14 14 15 16 17 18 16 13 12 11 8 5 2 3 4 6 8 8 8 7 7 7 7 7 7 7 7 7 9 10 10 9 8 8 9 10 11 10 11 11 12
12 12 12 12 12 11 10 10 11 11 12 14 15 17 18 18 18 17 16 16 15 15 14 13 14 13 13 13 13 12 12 11 11 12 13 13 12 11 11 12 13 13 13 13 13 14 15 16 17 17 15 12 12 11 9 5 2 1 3 4 7 8 7 6 6 6 6 7 7 7 6 7 8 9 9 8 7 7 8 9 10 10 10 11 11
11 11 11 11 11 10 10 10 10 11 11 12 13 14 16 18 16 15 14 14 14 14 14 13 12 12 12 12 12 12 11 11 12 12 12 11 12 11 10 11 12 13 13 13 13 14 15 15 16 16 14 13 12 11 9 6 4 1 2 3 5 6 6 4 5 5 6 6 6 6 6 7 8 8 7 6 6 7 8 9 10 10 10 11 11
11 10 10 10 10 9 10 11 10 10 11 11 11 11 14 15 14 14 14 14 14 13 13 12 11 11 12 12 12 11 11 11 12 13 11 11 11 10 10 10 11 12 13 13 12 13 14 14 15 15 14 13 12 11 9 7 5 3 0 1 4 6 5 4 4 5 5 5 5 5 6 7 7 8 6 5 6 6 7 8 9 9 10 10 10
10 10 10 9 9 9 10 11 10 10 10 10 10 11 11 11 12 13 14 15 15 14 13 12 11 11 11 12 11 11 10 10 12 12 11 11 11 10 10 11 10 11 12 13 12 13 13 13 13 14 13 12 11 10 9 8 6 4 2 1 2 5 6 5 4 5 5 5 5 5 6 6 6 6 6 6 7 5 5 8 9 9 9 10 9
9 9 9 9 10 10 10 10 10 9 9 9 9 10 9 9 11 11 12 14 16 15 14 13 12 11 12 12 12 11 11 11 11 12 11 11 11 10 10 11 10 10 11 12 11 12 13 13 12 12 12 12 11 11 10 9 8 6 4 3 3 4 7 6 5 4 5 4 5 5 6 7 6 5 6 7 6 4 4 7 8 8 9 9 8
8 8 8 9 11 10 9 8 9 9 9 9 9 9 9 9 9 9 11 14 16 15 14 13 11 12 12 12 12 11 11 11 11 11 11 10 10 10 10 10 10 9 9 10 10 10 11 12 12 11 11 12 11 11 11 10 9 7 5 4 4 5 7 7 5 5 4 4 5 5 6 7 5 5 6 6 4 3 5 6 7 7 8 8 8
9 9 10 11 11 9 9 8 8 8 8 8 8 8 9 9 8 9 10 11 14 15 14 13 12 12 12 12 12 11 10 10 10 10 10 10 10 10 11 11 10 9 8 9 10 10 10 10 11 12 11 11 11 10 10 10 9 7 6 5 5 6 8 8 6 5 4 4 5 5 6 7 5 3 4 5 3 4 5 5 5 6 7 7 7
9 10 12 13 11 9 9 9 9 8 7 7 8 7 7 8 8 8 8 9 13 14 14 13 12 12 12 11 11 10 10 9 9 9 9 10 10 11 11 11 11 10 9 8 9 10 10 9 10 11 11 11 11 10 9 9 8 7 7 7 6 6 9 9 7 6 5 4 5 5 6 7 5 2 3 3 2 4 6 4 4 4 5 7 7
10 9 13 14 11 10 10 10 10 8 7 6 6 6 7 8 7 7 7 8 11 12 13 13 13 12 12 11 11 10 10 9 10 9 10 10 10 11 11 12 12 11 10 8 8 10 10 10 9 10 12 11 10 10 10 9 8 8 7 8 8 7 9 9 7 6 5 4 4 4 6 7 5 3 2 3 1 3 5 3 3 2 2 4 6
10 10 13 15 12 10 9 10 10 9 9 7 6 6 6 7 7 7 7 8 9 10 11 12 13 13 12 12 11 11 9 9 9 10 10 10 11 12 11 12 12 12 11 9 9 9 11 11 9 9 11 12 10 9 10 9 8 8 7 8 9 9 10 9 8 6 5 5 4 4 5 6 6 4 4 4 1 3 3 2 3 2 1 1 4
11 10 12 14 13 10 9 10 9 9 9 9 8 6 6 6 6 6 6 7 8 9 9 11 12 13 13 12 11 10 9 9 9 10 11 11 12 12 11 11 11 11 10 9 9 9 10 10 9 9 9 11 10 8 8 8 8 8 8 8 9 10 10 10 8 7 6 5 4 4 4 5 6 5 5 5 2 2 3 2 3 2 2 1 2
11 12 13 15 15 12 10 9 9 9 9 9 8 8 7 7 6 6 6 6 7 8 8 9 11 13 14 12 11 10 10 10 10 10 11 12 13 12 11 10 10 9 9 8 8 9 10 9 10 12 10 9 9 8 6 6 7 7 8 8 9 10 10 10 9 8 7 6 5 4 4 4 5 5 5 4 4 3 2 3 3 1 3 3 2
14 17 17 17 17 15 13 11 10 10 9 8 8 8 8 7 6 6 6 6 6 7 6 8 9 11 13 13 12 11 11 11 11 11 11 11 13 12 10 9 9 9 8 7 8 9 10 9 11 13 10 8 8 8 6 6 6 6 7 7 8 9 10 11 10 8 7 7 6 6 5 4 4 5 5 4 4 3 2 3 3 1 2 3 2
18 20 19 19 18 17 15 13 12 11 9 8 7 6 6 6 5 5 5 6 7 7 7 7 8 10 11 12 13 12 11 11 11 12 12 12 12 11 10 10 11 11 9 9 9 10 11 11 12 13 11 9 9 9 7 5 4 4 5 6 7 8 9 10 10 9 9 8 8 7 6 5 4 4 5 5 4 4 3 2 3 2 1 1 1
20 21 21 20 19 18 16 14 13 11 9 8 7 6 5 5 5 5 6 7 7 7 8 8 8 9 9 10 11 11 11 11 13 14 13 12 10 11 12 11 12 13 11 9 9 9 9 10 11 11 10 10 10 9 8 5 4 3 5 5 7 8 9 10 9 9 9 9 9 9 8 7 6 5 5 5 5 5 4 3 2 2 2 1 1
23 23 22 21 20 18 16 15 13 11 9 8 7 6 5 5 5 5 5 7 8 8 9 9 8 8 8 8 9 10 11 12 15 15 12 11 10 9 12 14 14 14 12 9 8 8 8 8 9 10 10 10 9 8 7 5 3 3 4 6 7 9 9 10 10 10 10 10 10 10 10 9 8 7 6 6 6 5 5 4 3 3 3 2 2
25 24 22 20 20 18 17 15 13 12 10 8 7 6 6 6 5 4 4 6 7 8 10 10 8 7 8 9 9 9 10 12 15 12 7 7 10 9 13 20 18 15 14 11 8 8 9 9 9 9 9 8 8 7 6 5 4 4 4 6 8 9 10 10 11 11 11 10 11 11 11 11 10 9 7 7 7 6 6 6 5 5 4 3 3
25 23 22 21 19 18 17 16 14 12 11 9 8 6 6 5 5 4 4 5 5 5 6 7 8 9 9 10 11 9 8 11 10 3 3 1 7 10 12 18 17 15 16 12 9 8 10 11 10 10 9 9 8 7 7 6 5 5 5 5 7 10 11 11 12 13 13 12 12 12 12 12 12 11 10 9 8 8 8 7 6 6 6 5 4
26 24 23 21 19 19 18 16 15 13 12 11 9 8 6 5 4 3 3 3 2 3 3 3 4 5 6 8 10 10 8 9 7 4 2 1 6 8 9 14 15 16 16 12 9 9 9 11 11 10 9 9 9 8 7 6 6 6 6 6 6 9 10 12 14 14 14 13 12 12 13 13 13 13 11 10 9 9 9 8 8 7 7 7 5
27 26 24 21 20 19 18 16 15 14 13 12 11 9 7 5 4 3 3 2 1 1 1 1 2 3 3 3 4 5 5 6 5 5 2 2 5 6 7 11 13 15 16 13 11 10 8 9 10 10 9 9 8 6 6 6 7 8 7 6 6 7 9 11 14 15 15 14 13 13 13 14 14 14 13 11 11 10 10 9 9 9 8 8 7
27 26 24 22 21 19 18 16 15 15 14 13 12 10 8 5 4 4 4 4 3 3 2 1 1 3 4 5 6 5 5 5 5 6 5 1 3 5 4 7 9 11 14 13 11 11 10 10 12 12 10 10 9 8 7 8 9 8 7 6 6 7 9 12 14 15 16 17 15 14 14 14 14 13 13 13 13 12 11 10 10 10 10 10 10
26 25 24 23 21 20 18 16 16 16 15 14 13 10 8 6 5 5 5 4 4 5 4 4 5 5 5 6 7 7 7 7 6 7 6 4 2 1 1 3 4 4 7 9 10 12 13 15 16 14 11 11 10 10 10 8 7 7 8 7 5 7 9 12 15 17 18 18 17 17 16 15 15 14 14 14 13 13 13 12 11 12 12 12 11
25 24 23 22 21 19 18 17 17 17 17 15 14 11 8 6 6 6 5 4 4 5 6 5 5 5 6 6 6 6 7 7 6 6 5 5 5 3 2 2 2 2 3 5 10 14 15 19 19 14 11 10 9 9 8 5 6 8 10 10 6 6 8 10 14 16 18 18 18 19 18 17 16 16 15 14 14 13 13 13 13 13 13 13 12
24 24 23 22 21 20 19 19 19 19 18 16 14 12 10 8 8 7 6 5 5 5 5 5 5 5 5 6 6 6 6 5 5 6 6 5 5 4 5 5 3 3 4 4 10 12 10 14 15 12 12 10 7 7 5 3 5 7 9 13 11 6 6 8 10 14 17 19 20 20 20 20 19 18 17 16 15 15 14 14 14 14 14 14 14
23 23 23 22 21 21 21 22 22 20 19 17 15 13 12 11 10 9 8 6 6 6 5 4 4 5 5 5 6 6 5 5 5 5 6 7 6 5 6 5 4 3 3 1 6 6 3 4 8 10 13 12 7 6 5 4 5 5 6 11 13 10 8 8 8 11 14 17 19 21 22 22 21 20 19 18 17 16 15 15 14 14 14 15 14
24 25 24 23 22 21 21 23 23 21 19 17 14 12 11 11 10 9 8 8 8 7 6 5 5 5 5 5 5 6 5 5 5 5 6 8 8 8 7 6 5 5 4 3 2 1 1 2 4 7 11 12 9 5 5 5 4 3 2 4 7 9 11 10 8 9 11 13 16 19 20 22 22 21 21 20 19 18 17 17 16 15 14 14 15
25 26 25 24 23 23 23 23 23 22 20 17 14 12 11 9 8 8 8 8 8 7 6 5 4 4 5 5 5 6 6 6 6 6 7 9 10 12 12 10 8 7 7 7 7 6 4 3 2 4 8 11 7 3 3 5 3 1 1 1 1 3 7 6 4 6 7 9 12 14 17 18 17 18 20 20 19 19 19 18 18 16 15 15 15
25 27 26 25 25 24 24 25 25 23 21 18 15 13 11 10 8 7 8 7 8 7 5 4 4 5 5 5 5 6 7 8 9 8 9 9 10 13 14 14 12 12 13 12 11 9 7 6 5 5 7 8 7 5 3 4 4 3 1 1 0 1 2 1 1 3 4 3 4 7 10 11 11 12 15 18 18 18 18 19 19 18 18 17 16
27 29 30 28 27 26 25 26 26 25 22 20 18 15 14 13 10 9 8 7 7 7 7 6 6 6 6 5 5 7 8 9 9 8 8 8 9 10 11 13 13 14 15 16 15 13 11 9 9 8 7 7 7 6 4 4 4 5 4 1 1 2 2 1 3 2 1 0 1 1 2 3 5 6 8 11 12 14 15 17 18 19 19 19 19
31 32 32 30 29 27 26 27 27 26 24 22 20 18 17 16 14 12 11 8 8 8 8 8 8 7 6 5 5 7 8 8 8 7 6 6 7 7 8 9 10 11 12 14 14 14 14 13 11 9 8 6 6 7 6 5 4 4 5 5 2 2 0 0 1 1 1 2 1 2 1 2 1 1 3 5 6 8 10 11 14 16 17 19 19
33 33 32 31 30 28 27 28 28 27 25 24 22 20 19 17 15 14 13 12 11 9 8 8 8 7 6 5 5 6 7 7 7 7 6 6 7 7 7 8 9 10 10 10 10 11 13 13 12 10 9 7 6 8 7 6 5 4 3 3 3 1 0 0 1 2 3 3 2 1 2 2 3 3 2 2 2 3 5 6 8 10 12 14 16
33 32 32 32 31 29 28 29 29 28 27 25 24 22 21 19 16 15 15 14 12 10 8 9 9 8 7 6 6 7 7 7 7 7 7 6 7 8 8 9 10 11 11 10 10 10 10 11 11 10 9 9 8 7 7 5 4 3 3 2 1 0 0 1 1 2 3 3 4 4 2 4 7 6 2 2 3 4 5 5 5 6 8 10 12
31 32 34 33 32 30 30 30 30 29 28 27 26 24 22 20 17 16 16 15 13 10 10 11 10 10 9 8 7 7 8 8 8 7 7 6 7 9 10 11 12 13 13 13 11 10 10 10 11 10 10 10 9 8 7 6 4 3 2 2 2 2 1 0 1 1 2 3 4 4 4 6 8 6 5 6 6 6 7 7 7 7 7 8 9
29 30 32 32 32 31 30 31 31 31 30 29 28 26 23 21 18 17 17 17 15 12 11 12 12 11 11 10 9 8 9 8 8 7 7 8 10 12 13 14 14 15 15 15 14 13 12 12 12 12 12 12 11 10 10 8 6 5 4 3 3 3 2 1 3 4 3 3 4 5 6 6 5 6 8 8 8 8 8 9 9 8 8 9 9
24 26 29 31 32 32 32 33 33 33 32 31 30 28 26 23 21 19 18 18 17 14 13 14 14 13 13 12 11 10 10 9 8 7 8 10 12 12 13 14 15 15 16 16 16 15 15 14 14 14 13 13 12 11 11 10 9 8 7 6 5 4 3 3 3 5 5 5 5 6 7 8 8 9 7 7 10 10 8 8 8 7 7 8 8
Wind_Direction
147 146 149 155 153 150 149 153 150 144 145 143 141 139 138 137 136 136 137 140 145 150 151 150 148 145 142 140 140 142 143 143 143 139 134 135 134 131 132 131 131 133 137 139 138 135 134 133 131 130 129 128 128 128 128 127 123 122 125 126 126 124 124 124 122 120 118 117 116 116 114 110 107 106 106 105 102 99 99 96 91 86 84 84 82
145 146 151 155 154 151 150 154 150 146 147 145 144 141 140 138 136 135 135 138 141 146 148 147 144 142 141 141 141 140 137 136 135 131 128 128 128 128 131 130 131 133 137 137 137 137 135 134 133 134 134 129 128 129 129 126 126 128 128 129 130 129 130 127 124 123 122 120 118 117 114 110 108 107 105 104 100 97 96 95 94 89 88 88 84
140 144 151 154 153 152 151 154 150 148 149 147 146 143 141 139 137 135 134 136 139 143 144 143 143 142 141 140 138 135 131 130 130 129 129 127 126 127 129 130 133 136 139 139 139 138 137 138 135 136 135 130 129 130 130 128 131 133 131 132 131 130 132 130 129 127 124 122 119 115 110 108 106 105 104 103 99 95 93 92 93 92 92 90 86
141 141 151 154 154 154 152 155 152 150 150 150 148 145 144 140 138 135 135 136 138 141 143 142 143 144 141 139 137 134 132 132 133 132 130 128 128 128 128 129 132 137 141 141 140 139 141 141 137 136 133 132 131 132 135 131 138 140 137 139 135 134 135 134 134 127 125 126 120 113 110 107 105 105 105 103 100 97 94 92 92 93 93 91 86
143 140 152 154 155 157 154 157 154 152 152 152 150 148 146 142 139 136 136 136 138 142 143 142 143 144 141 140 138 137 136 136 136 133 131 129 130 130 131 131 132 135 136 139 139 139 142 141 138 137 135 135 132 132 134 132 141 142 139 142 141 140 140 140 139 133 135 132 120 114 112 110 107 107 105 104 102 100 98 95 93 93 93 90 85
143 139 151 154 157 158 156 158 156 154 154 154 152 150 147 144 141 137 137 137 139 142 142 142 143 143 142 141 140 140 140 140 138 134 132 130 130 131 132 131 131 133 133 136 139 139 140 141 141 139 137 137 135 134 134 137 141 140 139 143 144 143 144 146 146 144 141 130 116 113 114 113 110 109 106 104 102 100 99 97 96 94 93 89 84
143 140 148 153 157 159 158 157 157 156 156 155 154 152 149 145 143 139 139 139 141 142 142 143 143 144 144 143 143 144 144 143 141 138 136 133 134 134 135 133 130 132 132 135 138 139 140 142 142 139 139 139 138 136 137 141 140 140 141 144 147 147 149 149 149 148 139 125 116 115 115 114 112 111 110 106 103 100 97 96 95 94 94 91 87
140 140 147 153 157 160 160 159 158 157 157 157 155 154 151 148 145 143 142 143 144 143 143 144 146 147 147 146 145 147 147 146 145 143 141 138 138 137 139 137 134 133 134 137 139 141 141 141 142 141 141 141 139 137 138 140 140 144 144 146 151 152 153 148 145 144 133 122 120 118 116 115 113 113 111 108 104 102 98 94 94 94 92 91 90
135 136 145 151 156 162 162 161 159 158 159 158 158 157 154 151 149 148 146 146 147 146 145 146 148 149 149 149 149 150 151 151 151 149 145 143 141 139 141 141 140 139 139 142 141 142 142 141 143 142 142 142 141 137 138 141 144 147 147 149 153 153 154 151 145 137 127 123 122 117 116 115 112 113 115 112 105 104 100 96 95 92 89 89 90
132 135 143 146 155 163 164 163 161 159 158 159 162 161 157 154 153 152 150 149 150 149 148 148 150 151 151 152 152 153 154 156 156 154 150 148 147 141 141 144 145 142 142 144 143 143 143 144 144 143 143 144 143 140 142 145 146 147 149 151 154 155 154 155 147 134 127 127 122 118 121 118 112 113 117 113 105 103 101 101 99 93 90 89 89
130 134 140 143 153 164 166 164 164 159 157 163 167 165 161 157 156 155 153 152 152 152 151 150 151 152 154 154 155 157 158 159 159 157 156 154 151 143 142 147 148 145 143 145 147 144 145 147 147 148 148 146 144 143 142 142 141 141 143 149 155 156 155 153 143 133 131 128 122 121 124 116 111 114 115 111 104 101 99 99 96 93 93 91 90
128 133 136 139 152 162 165 165 166 163 161 167 170 168 166 162 161 159 157 155 155 155 153 152 152 154 156 157 158 161 160 161 160 160 161 160 154 145 144 151 152 148 145 146 150 147 148 152 152 153 152 149 146 143 140 138 136 132 134 141 149 150 152 149 138 134 132 129 127 124 121 110 111 115 112 110 105 99 96 95 93 93 95 93 90
127 131 133 136 152 160 162 163 166 169 169 168 170 172 171 168 165 162 161 159 158 157 156 156 155 155 157 159 161 163 163 163 162 162 166 165 159 150 147 153 156 154 149 148 150 151 153 158 157 154 153 152 148 143 139 136 131 128 134 137 143 145 144 141 134 135 133 131 130 127 122 113 118 118 111 110 106 101 98 97 95 94 95 92 89
129 130 132 135 151 157 158 162 165 172 173 170 170 174 177 174 170 167 164 162 161 159 158 158 158 157 158 161 163 164 164 165 164 164 169 169 165 156 149 154 159 157 155 152 152 156 159 161 159 155 154 153 148 144 140 138 132 126 140 145 147 144 139 136 132 133 135 134 131 130 123 118 125 120 113 112 107 103 102 99 96 94 94 94 90
134 129 130 133 139 149 155 159 164 172 176 175 173 172 177 179 176 172 168 165 163 160 160 160 160 160 161 164 165 165 164 165 166 165 169 172 169 160 151 155 160 159 160 158 155 159 163 163 161 159 158 154 148 146 146 147 139 117 131 151 153 147 141 138 136 135 136 135 133 129 123 122 122 118 116 115 110 102 99 98 97 95 94 94 92
131 128 127 130 130 139 147 154 162 170 177 177 176 173 176 182 181 179 174 168 165 163 162 162 162 162 164 166 167 167 166 166 169 168 169 172 170 163 153 155 161 161 163 164 161 162 166 165 163 164 164 160 154 154 156 157 151 103 111 144 156 156 148 139 140 139 139 137 134 130 124 124 120 121 124 122 120 109 102 101 99 97 96 95 92
125 127 126 129 130 135 139 148 158 167 176 177 178 176 177 183 183 182 177 171 169 166 166 166 165 165 166 167 169 170 169 168 171 173 172 171 170 168 159 156 163 166 166 167 167 168 169 168 168 171 173 171 167 164 163 163 173 97 87 128 155 163 157 146 142 140 143 139 138 134 128 136 135 134 133 127 126 119 112 109 105 103 101 100 96
125 128 129 128 126 130 134 144 156 164 171 174 176 175 179 182 179 181 179 175 174 172 172 171 168 168 168 169 171 172 171 169 172 176 173 171 173 171 165 160 162 168 173 173 174 176 175 176 176 179 180 180 179 177 173 172 185 179 70 112 150 166 166 160 149 145 144 138 140 136 135 149 143 138 141 134 128 126 123 118 115 111 107 106 102
128 129 128 127 126 126 132 144 155 162 168 172 176 177 186 184 175 180 183 181 182 181 176 172 172 172 171 172 174 173 173 173 175 178 174 172 176 176 172 167 163 165 174 179 183 183 184 185 186 187 187 187 187 187 184 181 187 193 176 113 157 170 172 174 166 155 143 139 142 136 145 153 142 142 147 138 132 132 130 121 116 113 111 112 109
130 129 126 124 127 128 135 145 152 159 165 167 175 179 188 188 180 183 186 187 189 185 178 177 177 176 176 176 176 173 175 178 178 180 178 175 180 182 177 174 172 168 171 181 190 190 187 188 190 193 193 192 189 184 182 183 187 190 197 205 185 180 180 182 181 165 146 144 142 138 154 151 142 145 141 136 135 132 131 122 117 115 114 115 114
133 130 126 126 128 130 135 144 150 157 161 162 169 171 178 187 184 183 185 191 193 186 180 183 180 179 182 178 178 177 177 181 180 181 182 182 186 188 185 182 182 177 175 181 191 193 188 186 188 191 193 193 189 179 175 175 179 186 200 210 214 200 186 181 182 174 157 148 141 146 157 149 142 141 143 146 142 137 131 125 122 121 120 120 119
139 134 130 133 133 133 138 143 149 152 154 159 163 163 167 175 176 176 188 194 192 188 185 184 183 183 183 180 183 181 180 183 181 181 182 184 191 193 192 190 187 185 183 182 186 192 190 188 187 185 186 191 190 183 178 174 172 179 196 203 215 208 187 177 175 174 162 151 147 152 148 143 139 133 149 157 153 143 129 128 127 124 123 123 122
143 142 139 140 138 140 146 147 148 149 150 153 158 162 166 169 169 174 190 197 191 191 190 184 185 186 185 185 186 184 187 189 183 183 183 186 193 196 196 195 191 191 189 183 184 189 191 192 192 186 184 189 191 189 184 180 173 172 186 192 211 211 184 173 173 172 165 149 149 148 137 138 141 134 153 159 153 145 137 133 133 130 131 127 123
148 145 147 148 146 149 153 156 154 153 150 150 157 162 167 170 170 176 187 194 192 194 195 193 190 189 189 188 188 189 194 193 185 186 190 190 195 195 196 199 195 195 194 187 186 190 191 194 198 193 186 187 191 193 188 185 176 170 181 186 203 206 180 174 176 175 170 154 152 142 131 137 151 159 155 156 134 141 151 143 134 136 135 135 130
151 152 157 158 156 156 158 162 161 162 160 157 161 161 168 171 174 179 179 186 196 199 200 201 197 194 193 191 192 194 198 197 190 193 198 196 199 195 194 202 201 199 196 192 194 195 193 194 201 199 189 188 191 193 190 189 180 171 178 184 196 192 175 177 179 180 177 163 155 136 129 135 153 175 165 165 109 124 159 157 145 147 112 137 140
158 163 167 166 165 163 161 164 165 167 169 172 170 164 170 175 178 179 173 179 193 201 203 205 204 202 198 196 199 200 200 202 199 201 206 203 203 198 194 201 201 199 197 197 202 203 202 200 203 202 191 189 192 192 190 191 184 173 176 183 190 183 175 180 179 183 186 177 168 144 137 138 152 174 175 178 138 112 148 161 157 165 9 113 140
164 169 170 170 170 168 165 166 168 168 169 177 178 175 179 177 178 181 182 180 185 196 200 204 209 208 204 202 203 206 207 207 207 207 212 212 209 203 200 201 198 198 199 202 209 211 212 206 206 208 194 187 190 193 191 196 193 179 175 182 189 184 178 183 185 187 191 193 192 170 160 156 160 173 180 187 179 133 139 152 157 124 31 57 105
168 171 170 169 170 170 168 168 172 170 169 178 181 183 188 185 179 186 196 192 190 197 197 202 209 211 210 209 208 212 214 215 215 211 214 219 215 206 202 202 198 203 206 208 214 215 214 207 207 212 203 187 187 192 192 200 206 191 179 179 189 191 184 185 190 192 196 203 208 202 189 179 174 178 188 197 185 172 162 159 165 98 42 61 65
172 170 168 168 170 170 170 172 174 173 173 181 183 184 189 190 185 187 194 199 203 201 199 205 207 209 211 214 218 220 222 222 220 217 217 222 220 208 200 203 201 209 215 212 216 217 215 211 208 209 206 192 185 186 185 193 208 206 191 183 188 196 192 190 192 197 205 212 216 222 213 200 195 187 194 203 193 196 196 172 181 169 54 56 53
172 169 170 171 171 171 173 176 178 176 178 184 188 188 189 189 188 195 197 205 215 209 207 211 208 208 210 216 222 224 226 224 221 222 222 225 223 208 200 204 206 210 214 214 218 217 213 212 208 204 202 193 180 174 171 177 196 210 206 197 195 199 198 196 199 205 212 217 222 229 230 222 214 205 206 207 200 207 219 203 193 191 136 96 133
175 174 177 176 174 175 177 180 184 184 184 188 194 192 191 191 193 206 212 217 223 221 220 218 212 211 210 215 220 222 225 226 227 228 226 228 225 209 200 202 212 213 212 215 218 216 207 204 203 198 194 186 175 171 168 167 184 210 215 212 208 206 206 206 209 215 220 224 226 230 236 237 231 222 220 219 211 208 222 231 212 207 225 208 192
181 181 181 179 179 180 182 185 188 191 191 194 199 195 188 188 194 204 219 228 227 228 226 219 217 219 218 220 221 223 224 230 236 233 232 235 231 218 203 201 213 216 213 218 219 214 203 196 197 197 194 188 184 183 183 187 204 222 218 218 220 217 217 218 220 223 227 231 231 231 234 239 242 238 232 230 226 217 218 225 223 229 243 247 225
186 186 184 184 185 184 187 190 192 196 197 198 202 196 187 187 199 210 222 230 229 235 232 223 219 221 225 226 227 232 232 239 245 244 248 248 240 235 212 204 208 214 214 215 215 210 198 189 192 199 200 202 203 206 214 228 240 241 227 225 227 227 227 227 231 230 231 236 235 234 234 238 242 244 244 239 234 230 227 224 222 229 238 242 232
189 190 190 190 189 189 192 194 195 198 197 198 198 193 191 190 197 206 217 224 230 242 245 240 232 228 234 232 230 234 236 243 254 271 47 60 232 232 216 205 204 212 216 213 210 209 200 194 194 197 202 215 225 234 246 257 261 259 257 251 239 237 237 234 235 234 235 238 236 234 234 237 239 241 246 248 245 238 236 235 227 227 233 238 238
194 193 194 193 193 194 196 196 196 196 194 193 190 188 189 186 186 184 193 210 230 247 258 274 262 258 257 250 246 244 251 262 282 326 29 6 246 231 218 211 206 212 218 215 212 209 208 208 206 205 210 224 236 248 256 262 270 275 278 273 257 248 246 240 239 240 241 242 239 236 235 237 239 241 243 245 248 248 243 243 238 231 233 239 239
199 197 196 196 197 198 199 200 196 191 189 186 182 182 182 177 172 152 137 134 112 202 228 263 315 345 353 338 300 280 310 319 324 344 332 269 252 232 225 225 218 214 216 218 220 218 217 218 221 221 220 224 229 236 252 265 276 289 290 282 274 261 252 248 246 245 247 248 246 242 239 240 241 244 247 245 248 254 253 251 248 241 239 245 245
201 201 199 197 198 198 199 200 193 187 184 180 178 177 176 171 164 151 133 123 109 115 150 153 80 45 46 45 43 46 42 38 30 30 42 60 229 224 230 229 219 215 215 216 218 219 217 219 223 224 225 230 231 233 247 264 277 290 288 281 289 275 257 251 249 249 250 251 251 249 246 246 246 248 251 252 251 253 256 256 254 250 248 253 255
201 201 199 196 195 193 192 193 189 185 182 178 178 176 176 176 175 171 153 139 124 115 124 113 93 78 67 60 59 66 68 66 56 47 56 66 77 157 193 199 200 207 215 216 219 222 221 221 221 217 221 229 234 241 248 260 279 287 273 264 289 285 265 252 247 249 251 251 252 253 253 252 253 255 254 257 257 256 257 258 257 254 253 255 257
198 197 195 194 192 188 185 187 186 184 182 180 179 178 177 181 183 182 170 153 143 129 126 115 98 83 73 67 65 67 64 60 55 53 63 67 62 68 90 123 141 138 159 191 212 220 223 227 225 218 218 222 228 240 242 250 271 276 265 255 270 295 282 257 246 247 249 251 253 255 258 258 257 258 258 259 260 259 258 258 258 255 254 258 258
195 193 192 192 190 185 182 184 185 184 184 182 179 177 174 178 180 180 177 165 162 154 140 125 100 83 76 69 65 66 59 53 50 49 54 61 64 69 81 95 110 123 124 178 207 212 222 231 228 217 219 227 233 233 220 224 261 273 264 251 252 280 302 276 252 246 247 251 254 256 259 261 262 261 260 260 260 260 259 258 258 254 252 257 261
195 194 192 192 190 187 184 184 185 185 187 186 181 178 175 174 175 175 176 170 169 165 150 135 109 95 90 82 77 72 65 62 56 47 50 59 73 83 87 93 97 110 110 172 220 218 228 227 213 203 212 223 221 208 203 211 239 252 256 250 247 256 287 297 276 256 252 253 256 258 260 262 263 262 261 260 259 259 258 258 259 258 257 256 260
195 195 194 194 191 189 188 185 185 186 190 190 185 184 182 176 174 175 176 172 171 165 149 138 122 113 106 97 91 83 75 74 70 60 59 63 74 83 85 89 84 87 94 72 62 107 158 184 186 181 188 199 201 199 220 231 234 230 228 256 255 257 270 284 285 266 257 256 258 260 261 262 263 264 263 262 260 259 258 258 257 257 258 257 258
197 197 196 194 191 189 189 188 187 188 191 192 190 190 187 181 182 184 181 175 173 170 158 147 136 128 115 99 90 82 76 84 90 85 80 76 76 79 84 88 88 86 90 85 77 84 116 154 172 169 168 178 181 172 220 223 212 169 129 259 254 254 257 258 268 266 260 263 264 261 261 263 262 262 264 264 262 259 257 257 257 255 255 256 256
199 198 196 194 190 189 191 190 189 189 190 191 192 193 187 183 188 188 186 181 175 171 163 149 139 131 116 98 82 72 77 93 102 97 93 89 81 81 86 90 92 90 89 89 88 88 100 116 122 135 147 152 140 113 128 162 160 160 155 324 35 179 228 229 310 283 259 268 277 262 258 260 258 257 262 265 265 263 261 259 258 257 255 255 255
201 200 197 195 192 190 193 193 190 189 189 189 192 193 185 182 184 179 182 183 174 172 165 152 140 131 120 105 85 79 91 101 103 97 94 90 84 84 88 91 90 88 88 89 89 89 90 97 107 117 125 132 130 116 101 112 151 184 173 140 308 247 218 7 345 297 213 283 350 251 242 264 262 257 260 266 266 268 269 267 265 263 259 258 257
204 202 198 196 193 193 195 194 191 189 189 189 193 192 185 183 182 177 179 181 179 182 177 161 147 137 128 115 95 95 105 105 101 98 91 85 88 91 94 97 93 89 88 88 87 87 87 89 92 99 103 107 120 118 107 107 129 164 171 181 236 276 230 355 309 262 271 295 267 129 66 41 18 294 274 271 268 267 273 273 270 269 266 264 262
204 202 198 197 194 195 197 194 192 191 190 190 192 192 186 185 186 186 188 189 189 190 182 165 152 145 139 124 107 110 115 108 103 102 94 90 94 97 100 103 101 97 94 89 86 83 83 86 89 93 95 91 100 110 106 105 114 112 125 176 210 238 177 254 271 269 291 283 234 258 331 21 11 340 308 286 281 271 286 288 278 275 272 269 266
204 200 198 197 194 196 198 196 193 193 192 191 192 191 188 186 189 194 197 198 197 192 181 170 162 156 151 137 117 114 119 114 109 103 97 94 96 98 101 103 103 100 96 92 90 85 84 85 86 89 92 89 90 100 100 90 97 95 76 96 124 68 177 233 256 265 274 268 273 292 308 341 341 335 330 323 312 295 295 294 280 274 275 277 272
203 200 199 197 195 196 198 197 194 194 194 193 193 193 192 189 190 198 204 205 205 198 186 180 173 166 160 151 133 122 124 121 114 108 100 94 100 105 102 99 96 93 92 92 91 89 86 82 82 82 85 87 87 92 94 83 79 75 54 46 27 20 21 22 37 341 299 274 276 285 302 326 333 327 317 317 313 305 295 286 280 269 264 272 274
203 200 199 197 195 197 199 198 196 196 196 195 195 195 196 194 194 201 209 213 212 204 193 186 179 173 167 161 150 139 136 132 123 115 104 101 108 110 101 91 86 84 87 88 87 85 81 79 81 82 83 82 82 86 88 80 73 64 51 34 10 3 356 1 13 351 318 280 276 283 297 308 310 304 305 309 309 304 294 285 286 278 263 262 263
201 198 199 198 197 198 200 199 198 198 198 197 197 198 199 199 200 204 212 218 220 213 201 193 186 181 176 171 164 155 151 147 140 129 116 115 117 111 96 85 78 78 82 84 83 81 79 78 79 79 79 77 76 79 79 73 68 62 55 48 35 20 8 2 355 335 307 291 290 286 290 293 288 288 290 299 305 302 289 280 279 277 270 265 259